EW0214 Weather Reports


Display with metric or nautical units.
time (UTC)temp
F
wind
direction
speed
MPH
gust
MPH
rain 1hr
in
rain 24hr
in
rain mn
in
humidity
%
barometer
mb
20260831100123 79 182 1.0 4.0 0.00 0.00 0.00 84 1016.1
20260831095617 79 180 1.0 3.0 0.00 0.00 0.00 84 1016.1
20260831095112 79 181 1.0 6.0 0.00 0.00 0.00 84 1016.1
20260831095107 79 182 2.0 6.0 0.00 0.00 0.00 84 1016.1
20260831094329 79 182 1.0 4.0 0.00 0.00 0.00 84 1016.1
20260831093552 79 183 1.0 4.0 0.00 0.00 0.00 83 1016.0
20260831093046 79 180 2.0 4.0 0.00 0.00 0.00 83 1015.9
20260831092541 79 183 2.0 5.0 0.00 0.00 0.00 83 1015.9
20260831092035 79 184 2.0 5.0 0.00 0.00 0.00 83 1015.8
20260831091529 79 173 2.0 5.0 0.00 0.00 0.00 83 1015.7
20260831091023 79 163 2.0 6.0 0.00 0.00 0.00 83 1015.6
20260831090747 79 189 2.0 6.0 0.00 0.00 0.00 83 1015.8
20260831090010 79 170 2.0 5.0 0.00 0.00 0.00 82 1015.8
20260831085504 79 179 2.0 5.0 0.00 0.00 0.00 82 1015.8
20260831084959 79 156 2.0 6.0 0.00 0.00 0.00 82 1015.8
20260831084452 79 154 2.0 6.0 0.00 0.00 0.00 82 1015.8
20260831083947 80 182 2.0 6.0 0.00 0.00 0.00 82 1015.9
20260831083441 80 148 2.0 6.0 0.00 0.00 0.00 82 1015.9
20260831082934 80 148 2.0 6.0 0.00 0.00 0.00 82 1015.9
20260831082659 80 172 2.0 6.0 0.00 0.00 0.00 81 1016.0
20260831081923 80 157 3.0 7.0 0.00 0.00 0.00 81 1016.1
20260831081416 80 152 3.0 8.0 0.00 0.00 0.00 81 1016.0
20260831080910 80 147 3.0 8.0 0.00 0.00 0.00 81 1016.0
20260831080405 80 191 3.0 8.0 0.00 0.00 0.00 80 1016.0
20260831075859 80 163 3.0 8.0 0.00 0.00 0.00 80 1015.9
20260831075353 80 147 3.0 7.0 0.00 0.00 0.00 80 1015.9
20260831074846 80 175 3.0 8.0 0.00 0.00 0.00 80 1015.9
20260831074341 80 146 2.0 8.0 0.00 0.00 0.00 79 1015.9
20260831073835 80 169 2.0 6.0 0.00 0.00 0.00 79 1015.9
20260831073329 80 165 3.0 6.0 0.00 0.00 0.00 79 1016.0
20260831072822 81 152 3.0 8.0 0.00 0.00 0.00 78 1015.9
20260831072317 81 167 3.0 8.0 0.00 0.00 0.00 78 1015.9
20260831071812 81 122 3.0 8.0 0.00 0.00 0.00 77 1016.0
20260831071807 81 150 3.0 9.0 0.00 0.00 0.00 77 1016.0
20260831070759 81 155 4.0 10.0 0.00 0.00 0.00 77 1016.0
20260831070523 81 193 4.0 10.0 0.00 0.00 0.00 76 1016.1
20260831065747 81 170 4.0 13.0 0.00 0.00 0.00 76 1016.1
20260831065244 82 161 4.0 9.0 0.00 0.00 0.00 75 1016.2
20260831065240 82 153 4.0 13.0 0.00 0.00 0.00 75 1016.1
20260831064241 82 157 4.0 9.0 0.00 0.00 0.00 74 1016.2
20260831063740 82 149 4.0 9.0 0.00 0.00 0.00 74 1016.1
20260831063239 82 181 4.0 12.0 0.00 0.00 0.00 74 1016.2
20260831063013 82 150 5.0 12.0 0.00 0.00 0.00 73 1016.3
20260831062239 82 171 4.0 11.0 0.00 0.00 0.00 73 1016.1
20260831061741 82 165 4.0 11.0 0.00 0.00 0.00 73 1016.1
20260831061239 83 161 4.0 10.0 0.00 0.00 0.00 73 1016.0
20260831060739 83 98 5.0 10.0 0.00 0.00 0.00 73 1016.0
20260831060510 83 155 4.0 10.0 0.00 0.00 0.00 72 1016.1
20260831055740 83 150 4.0 9.0 0.00 0.00 0.00 72 1015.9
20260831055241 83 153 4.0 9.0 0.00 0.00 0.00 72 1015.9
20260831054740 83 142 4.0 9.0 0.00 0.00 0.00 72 1015.9
20260831054235 83 166 4.0 9.0 0.00 0.00 0.00 71 1015.9
20260831053736 84 154 4.0 9.0 0.00 0.00 0.00 71 1015.8
20260831053237 84 148 3.0 9.0 0.00 0.00 0.00 71 1015.7
20260831052736 84 173 3.0 7.0 0.00 0.00 0.00 70 1015.7
20260831052235 84 134 4.0 10.0 0.00 0.00 0.00 70 1015.7
20260831051736 85 143 4.0 10.0 0.00 0.00 0.00 69 1015.6
20260831051506 85 145 3.0 8.0 0.00 0.00 0.00 69 1015.5
20260831050735 85 156 3.0 8.0 0.00 0.00 0.00 68 1015.6
20260831050235 85 157 3.0 8.0 0.00 0.00 0.00 68 1015.6
20260831050001 85 160 3.0 8.0 0.00 0.00 0.00 67 1015.5
20260831045222 85 167 3.0 8.0 0.00 0.00 0.00 67 1015.5
20260831044717 86 177 3.0 8.0 0.00 0.00 0.00 66 1015.5
20260831044210 86 131 3.0 8.0 0.00 0.00 0.00 66 1015.6
20260831043705 86 149 3.0 9.0 0.00 0.00 0.00 66 1015.6
20260831043158 86 138 4.0 9.0 0.00 0.00 0.00 65 1015.6
20260831042653 86 170 4.0 9.0 0.00 0.00 0.00 65 1015.5
20260831042147 86 144 4.0 9.0 0.00 0.00 0.00 65 1015.5
20260831041643 86 173 4.0 9.0 0.00 0.00 0.00 65 1015.6
20260831041638 87 140 4.0 10.0 0.00 0.00 0.00 64 1015.5
20260831040629 87 147 5.0 10.0 0.00 0.00 0.00 64 1015.5
20260831040354 87 140 5.0 10.0 0.00 0.00 0.00 63 1015.5
20260831035617 87 136 5.0 10.0 0.00 0.00 0.00 63 1015.4
20260831035342 87 154 5.0 13.0 0.00 0.00 0.00 62 1015.4
20260831034605 87 126 5.0 13.0 0.00 0.00 0.00 62 1015.3
20260831034059 87 139 6.0 12.0 0.00 0.00 0.00 62 1015.2
20260831033553 88 123 6.0 12.0 0.00 0.00 0.00 61 1015.1
20260831033046 88 158 5.0 14.0 0.00 0.00 0.00 61 1015.1
20260831032542 88 148 5.0 14.0 0.00 0.00 0.00 60 1015.1
20260831032041 88 163 5.0 13.0 0.00 0.00 0.00 60 1015.0
20260831031813 88 154 5.0 12.0 0.00 0.00 0.00 60 1015.1
20260831031041 88 113 4.0 12.0 0.00 0.00 0.00 60 1014.9
20260831030542 88 128 4.0 9.0 0.00 0.00 0.00 60 1014.8
20260831030042 89 141 4.0 10.0 0.00 0.00 0.00 59 1014.8
20260831025542 89 148 4.0 10.0 0.00 0.00 0.00 59 1014.7
20260831025043 89 149 5.0 10.0 0.00 0.00 0.00 59 1014.7
20260831024815 89 149 5.0 11.0 0.00 0.00 0.00 59 1014.5
20260831024042 89 131 6.0 11.0 0.00 0.00 0.00 58 1014.4
20260831023541 89 148 5.0 10.0 0.00 0.00 0.00 58 1014.3
20260831023043 90 155 5.0 12.0 0.00 0.00 0.00 58 1014.1
20260831022542 90 128 5.0 12.0 0.00 0.00 0.00 57 1014.0
20260831022042 90 136 4.0 10.0 0.00 0.00 0.00 56 1013.8
20260831021543 90 134 5.0 10.0 0.00 0.00 0.00 55 1013.7
20260831021311 91 154 5.0 12.0 0.00 0.00 0.00 55 1013.7
20260831020537 91 116 6.0 13.0 0.00 0.00 0.00 55 1013.6
20260831020037 91 124 6.0 13.0 0.00 0.00 0.00 54 1013.4
20260831015808 91 175 7.0 16.0 0.00 0.00 0.00 54 1013.5
20260831015039 91 132 7.0 16.0 0.00 0.00 0.00 53 1013.3
20260831014538 91 171 6.0 13.0 0.00 0.00 0.00 52 1013.3
20260831014042 92 152 1.0 3.0 0.00 0.00 0.00 49 1013.0
20260831014037 92 133 3.0 12.0 0.00 0.00 0.00 50 1013.2
20260831013039 92 151 1.0 3.0 0.00 0.00 0.00 47 1013.0
20260831012534 92 151 1.0 3.0 0.00 0.00 0.00 47 1012.9
20260831012034 92 151 1.0 3.0 0.00 0.00 0.00 47 1012.9
20260831011535 92 152 1.0 3.0 0.00 0.00 0.00 47 1012.8
20260831011033 93 152 2.0 6.0 0.00 0.00 0.00 46 1012.9
20260831010538 93 158 2.0 5.0 0.00 0.00 0.00 46 1012.8
20260831010533 93 152 2.0 6.0 0.00 0.00 0.00 47 1012.8
20260831005534 94 158 2.0 5.0 0.00 0.00 0.00 46 1012.8
20260831005312 94 173 2.0 6.0 0.00 0.00 0.00 45 1012.8
20260831005034 94 158 2.0 5.0 0.00 0.00 0.00 46 1012.9
20260831004028 94 174 2.0 7.0 0.00 0.00 0.00 45 1012.8
20260831003521 94 171 3.0 7.0 0.00 0.00 0.00 45 1012.8
20260831003020 94 138 4.0 7.0 0.00 0.00 0.00 44 1012.6
20260831002520 95 170 3.0 8.0 0.00 0.00 0.00 44 1012.8
20260831002250 95 150 3.0 9.0 0.00 0.00 0.00 43 1012.6
20260831001519 95 153 3.0 9.0 0.00 0.00 0.00 43 1012.6
20260831001020 95 155 5.0 10.0 0.00 0.00 0.00 44 1012.8
20260831000519 95 140 5.0 11.0 0.00 0.00 0.00 43 1012.6
20260831000017 96 144 5.0 11.0 0.00 0.00 0.00 43 1012.8
20260830235748 96 144 3.0 9.0 0.00 0.00 0.00 43 1012.6
20260830235015 96 140 2.0 7.0 0.00 0.00 0.00 43 1012.6
20260830234518 96 161 2.0 8.0 0.00 0.00 0.00 43 1012.8
20260830234514 96 199 3.0 8.0 0.00 0.00 0.00 42 1012.8
20260830233512 96 134 3.0 7.0 0.00 0.00 0.00 42 1012.9
20260830233241 96 145 3.0 8.0 0.00 0.00 0.00 43 1012.9
20260830232510 96 142 4.0 9.0 0.00 0.00 0.00 42 1012.8
20260830232007 96 151 2.0 6.0 0.00 0.00 0.00 42 1012.8
20260830231507 96 161 3.0 8.0 0.00 0.00 0.00 42 1012.6
20260830231005 96 184 2.0 8.0 0.00 0.00 0.00 42 1012.8
20260830230502 96 178 2.0 8.0 0.00 0.00 0.00 45 1012.8
20260830230000 96 164 3.0 9.0 0.00 0.00 0.00 44 1012.8
20260830225454 96 161 3.0 9.0 0.00 0.00 0.00 43 1012.8
20260830224948 96 157 3.0 7.0 0.00 0.00 0.00 44 1012.8
20260830224443 96 141 2.0 7.0 0.00 0.00 0.00 44 1012.8
20260830223943 96 180 2.0 6.0 0.00 0.00 0.00 44 1012.9
20260830223444 96 167 2.0 6.0 0.00 0.00 0.00 44 1012.9
20260830223214 96 171 3.0 7.0 0.00 0.00 0.00 44 1013.0
20260830222444 96 142 4.0 12.0 0.00 0.00 0.00 44 1013.0
20260830221943 96 119 4.0 12.0 0.00 0.00 0.00 44 1012.9
20260830221444 96 106 2.0 8.0 0.00 0.00 0.00 44 1013.0
20260830220943 96 146 3.0 9.0 0.00 0.00 0.00 44 1013.0
20260830220444 96 149 4.0 9.0 0.00 0.00 0.00 43 1013.1
20260830215944 96 109 3.0 9.0 0.00 0.00 0.00 44 1013.2
20260830215444 96 121 4.0 10.0 0.00 0.00 0.00 44 1013.1
20260830214943 96 69 4.0 13.0 0.00 0.00 0.00 44 1013.4
20260830214443 96 162 4.0 13.0 0.00 0.00 0.00 45 1013.4
20260830213944 96 172 3.0 9.0 0.00 0.00 0.00 45 1013.4
20260830213443 96 144 3.0 9.0 0.00 0.00 0.00 45 1013.6
20260830212943 96 264 3.0 8.0 0.00 0.00 0.00 43 1013.4
20260830212715 96 136 3.0 8.0 0.00 0.00 0.00 44 1013.6
20260830211939 97 148 3.0 8.0 0.00 0.00 0.00 43 1013.7
20260830211933 97 150 2.0 7.0 0.00 0.00 0.00 45 1013.8
20260830210926 97 184 3.0 10.0 0.00 0.00 0.00 45 1013.8
20260830210420 97 132 5.0 11.0 0.00 0.00 0.00 45 1014.0
20260830205913 96 167 4.0 11.0 0.00 0.00 0.00 45 1014.0
20260830205408 96 76 4.0 8.0 0.00 0.00 0.00 47 1014.1
20260830204902 96 156 5.0 12.0 0.00 0.00 0.00 46 1014.2
20260830204627 96 120 5.0 12.0 0.00 0.00 0.00 47 1014.2
20260830203849 97 160 4.0 9.0 0.00 0.00 0.00 46 1014.2
20260830203345 98 142 4.0 9.0 0.00 0.00 0.00 45 1014.4
20260830203340 98 172 4.0 11.0 0.00 0.00 0.00 44 1014.6
20260830202331 99 117 4.0 12.0 0.00 0.00 0.00 45 1014.6
20260830201825 100 157 4.0 12.0 0.00 0.00 0.00 44 1014.7
20260830201320 100 180 3.0 10.0 0.00 0.00 0.00 45 1014.7
20260830200813 100 129 4.0 10.0 0.00 0.00 0.00 46 1014.8
20260830200308 99 184 5.0 10.0 0.00 0.00 0.00 42 1014.8
20260830195802 100 163 4.0 10.0 0.00 0.00 0.00 43 1014.7
20260830195528 99 113 3.0 10.0 0.00 0.00 0.00 43 1014.9
20260830195021 100 172 3.0 8.0 0.00 0.00 0.00 44 1015.0
20260830194244 99 152 3.0 7.0 0.00 0.00 0.00 44 1015.0
20260830193737 98 153 4.0 11.0 0.00 0.00 0.00 47 1015.1
20260830193503 98 148 4.0 11.0 0.00 0.00 0.00 46 1015.2
20260830192726 98 165 4.0 10.0 0.00 0.00 0.00 47 1015.4
20260830192220 98 172 5.0 11.0 0.00 0.00 0.00 46 1015.5
20260830191714 98 105 5.0 11.0 0.00 0.00 0.00 46 1015.5
20260830191209 98 142 4.0 11.0 0.00 0.00 0.00 45 1015.7
20260830190709 98 157 3.0 11.0 0.00 0.00 0.00 46 1015.8
20260830190210 98 141 4.0 11.0 0.00 0.00 0.00 47 1015.8
20260830185707 97 135 3.0 8.0 0.00 0.00 0.00 49 1015.9
20260830185207 96 138 4.0 9.0 0.00 0.00 0.00 49 1016.0
20260830184708 96 144 4.0 9.0 0.00 0.00 0.00 46 1016.0
20260830184208 96 124 4.0 10.0 0.00 0.00 0.00 48 1016.1
20260830183708 96 159 4.0 11.0 0.00 0.00 0.00 50 1016.1
20260830183436 96 136 2.0 11.0 0.00 0.00 0.00 50 1016.2
20260830182705 96 165 1.0 5.0 0.00 0.00 0.00 50 1016.3
20260830182206 96 209 3.0 9.0 0.00 0.00 0.00 49 1016.5
20260830181704 96 166 4.0 9.0 0.00 0.00 0.00 51 1016.4
20260830181202 95 180 3.0 8.0 0.00 0.00 0.00 51 1016.6
20260830180701 95 107 2.0 8.0 0.00 0.00 0.00 52 1016.7
20260830180432 95 134 3.0 8.0 0.00 0.00 0.00 52 1016.8
20260830175659 94 159 3.0 9.0 0.00 0.00 0.00 54 1016.9
20260830175200 94 128 4.0 13.0 0.00 0.00 0.00 54 1017.1
20260830174656 93 158 4.0 13.0 0.00 0.00 0.00 54 1017.2
20260830174154 93 141 3.0 10.0 0.00 0.00 0.00 56 1017.3
20260830173655 92 105 4.0 10.0 0.00 0.00 0.00 55 1017.4
20260830173155 92 87 3.0 10.0 0.00 0.00 0.00 55 1017.4
20260830172654 92 163 3.0 8.0 0.00 0.00 0.00 55 1017.4
20260830172155 92 131 4.0 11.0 0.00 0.00 0.00 56 1017.6
20260830171655 91 192 4.0 11.0 0.00 0.00 0.00 56 1017.6
20260830171155 91 190 3.0 8.0 0.00 0.00 0.00 58 1017.7
20260830170656 91 174 3.0 8.0 0.00 0.00 0.00 56 1017.8
20260830170156 91 154 2.0 9.0 0.00 0.00 0.00 58 1017.8
20260830165656 91 154 2.0 9.0 0.00 0.00 0.00 59 1017.8
20260830165155 91 171 3.0 10.0 0.00 0.00 0.00 59 1017.8
20260830164655 91 186 4.0 10.0 0.00 0.00 0.00 60 1017.9
20260830164431 90 132 2.0 5.0 0.00 0.00 0.00 61 1018.0
20260830164155 90 117 3.0 10.0 0.00 0.00 0.00 59 1018.0
20260830163154 89 168 3.0 10.0 0.00 0.00 0.00 62 1018.0
20260830162653 89 130 3.0 10.0 0.00 0.00 0.00 62 1018.0
20260830162423 89 136 3.0 10.0 0.00 0.00 0.00 64 1018.0
20260830161648 88 155 4.0 13.0 0.00 0.00 0.00 64 1018.0
20260830161642 88 240 5.0 13.0 0.00 0.00 0.00 63 1018.0
20260830160635 88 123 3.0 11.0 0.00 0.00 0.00 64 1018.0
20260830160404 87 153 1.0 5.0 0.00 0.00 0.00 68 1017.9
20260830155633 86 184 1.0 4.0 0.00 0.00 0.00 69 1017.9
20260830155132 86 174 1.0 7.0 0.00 0.00 0.00 69 1017.9
20260830154630 85 171 2.0 7.0 0.00 0.00 0.00 69 1017.8
20260830154133 85 186 2.0 9.0 0.00 0.00 0.00 71 1017.8
20260830154128 85 158 2.0 9.0 0.00 0.00 0.00 70 1017.9
20260830153126 84 307 2.0 6.0 0.00 0.00 0.00 73 1017.8
20260830152627 84 171 3.0 9.0 0.00 0.00 0.00 73 1017.6
20260830152124 83 169 2.0 9.0 0.00 0.00 0.00 74 1017.7
20260830151622 83 170 1.0 7.0 0.00 0.00 0.00 75 1017.6
20260830151122 83 205 2.0 7.0 0.00 0.00 0.00 76 1017.8
20260830150623 83 203 2.0 10.0 0.00 0.00 0.00 77 1017.7
20260830150120 82 178 2.0 10.0 0.00 0.00 0.00 78 1017.7
20260830145621 82 171 2.0 8.0 0.00 0.00 0.00 79 1017.8
20260830145354 81 173 2.0 8.0 0.00 0.00 0.00 80 1017.9
20260830144620 81 169 2.0 5.0 0.00 0.00 0.00 81 1017.8
20260830144122 81 187 3.0 8.0 0.00 0.00 0.00 81 1017.8
20260830143618 81 175 3.0 8.0 0.00 0.00 0.00 82 1017.9
20260830143349 80 180 2.0 7.0 0.00 0.00 0.00 83 1017.9
20260830142613 80 171 2.0 6.0 0.00 0.00 0.00 84 1017.9
20260830142338 80 198 2.0 9.0 0.00 0.00 0.00 84 1017.9
20260830141600 79 207 2.0 9.0 0.00 0.00 0.00 84 1017.8
20260830141055 79 159 2.0 9.0 0.00 0.00 0.00 85 1017.8
20260830140819 79 192 2.0 9.0 0.00 0.00 0.00 85 1017.8
20260830140043 78 153 2.0 7.0 0.00 0.00 0.00 85 1017.7
20260830135809 78 154 1.0 7.0 0.00 0.00 0.00 86 1017.7
20260830135031 78 186 1.0 4.0 0.00 0.00 0.00 85 1017.7
20260830134524 78 190 1.0 7.0 0.00 0.00 0.00 86 1017.7
20260830134019 77 188 2.0 7.0 0.00 0.00 0.00 85 1017.6
20260830133513 77 154 1.0 5.0 0.00 0.00 0.00 85 1017.4
20260830133006 77 159 1.0 4.0 0.00 0.00 0.00 85 1017.6
20260830132731 76 159 0.0 4.0 0.00 0.00 0.00 85 1017.4
20260830131955 76 157 0.0 0.0 0.00 0.00 0.00 85 1017.3
20260830131950 76 157 0.0 1.0 0.00 0.00 0.00 85 1017.2
20260830130942 76 157 0.0 2.0 0.00 0.00 0.00 85 1017.2
20260830130437 76 157 0.0 2.0 0.00 0.00 0.00 84 1017.2
20260830125930 75 157 0.0 0.0 0.00 0.00 0.00 84 1017.2
20260830125425 75 157 0.0 0.0 0.00 0.00 0.00 84 1017.2
20260830124919 75 157 0.0 0.0 0.00 0.00 0.00 84 1017.1
20260830124412 75 156 0.0 0.0 0.00 0.00 0.00 83 1017.1
20260830124137 75 156 0.0 0.0 0.00 0.00 0.00 83 1017.1
20260830123631 75 156 0.0 0.0 0.00 0.00 0.00 83 1017.1
20260830122855 75 156 0.0 0.0 0.00 0.00 0.00 82 1017.0
20260830122349 75 156 0.0 0.0 0.00 0.00 0.00 82 1016.9
20260830121842 75 156 0.0 0.0 0.00 0.00 0.00 82 1017.0
20260830121336 75 156 0.0 0.0 0.00 0.00 0.00 82 1016.9
20260830121103 75 156 0.0 0.0 0.00 0.00 0.00 82 1016.8
20260830120325 75 156 0.0 1.0 0.00 0.00 0.00 82 1016.7
20260830115818 75 156 0.0 1.0 0.00 0.00 0.00 82 1016.7
20260830115313 75 156 0.0 0.0 0.00 0.00 0.00 82 1016.7
20260830114807 76 156 0.0 1.0 0.00 0.00 0.00 81 1016.8
20260830114302 76 156 0.0 1.0 0.00 0.00 0.00 81 1016.8
20260830113755 76 156 0.0 0.0 0.00 0.00 0.00 81 1016.8
20260830113248 76 156 0.0 1.0 0.00 0.00 0.00 81 1016.7
20260830112743 76 156 0.0 1.0 0.00 0.00 0.00 81 1016.6
20260830112511 76 156 0.0 1.0 0.00 0.00 0.00 81 1016.6
20260830111740 76 156 0.0 2.0 0.00 0.00 0.00 80 1016.5
20260830111240 76 156 0.0 2.0 0.00 0.00 0.00 80 1016.5
20260830110740 76 156 0.0 1.0 0.00 0.00 0.00 80 1016.6
20260830110241 76 156 0.0 2.0 0.00 0.00 0.00 80 1016.6
20260830105740 76 156 0.0 2.0 0.00 0.00 0.00 80 1016.4
20260830105238 76 156 1.0 2.0 0.00 0.00 0.00 80 1016.4
20260830104737 76 156 0.0 2.0 0.00 0.00 0.00 80 1016.4
20260830104505 77 156 0.0 2.0 0.00 0.00 0.00 79 1016.4
20260830103731 77 156 0.0 0.0 0.00 0.00 0.00 79 1016.3
20260830103504 77 156 0.0 0.0 0.00 0.00 0.00 79 1016.3
20260830102733 77 156 0.0 0.0 0.00 0.00 0.00 79 1016.2
20260830102230 77 156 0.0 0.0 0.00 0.00 0.00 79 1016.2
20260830101727 77 156 0.0 0.0 0.00 0.00 0.00 78 1016.2
20260830101226 77 156 0.0 1.0 0.00 0.00 0.00 78 1016.2